This is the latest recevied weather packets stored in our database for station/object IR9AK-10. If no packets are shown the sender has not sent any weather packets the latest 10 day(s).
| Time | Temp. | Humidity | Pressure | Rain* | Wind** | Luminosity | Snow |
|---|---|---|---|---|---|---|---|
| 1777587796 | 19.44° C | 70% | 1061.9 hPa | - | - | - | - |
| 1777587197 | 18.89° C | 68% | 1062 hPa | - | - | - | - |
| 1777586598 | 18.89° C | 69% | 1061.9 hPa | - | - | - | - |
| 1777585999 | 18.89° C | 67% | 1061.8 hPa | - | - | - | - |
| 1777585400 | 18.89° C | 64% | 1061.8 hPa | - | - | - | - |
| 1777584801 | 18.89° C | 62% | 1061.7 hPa | - | - | - | - |
| 1777582871 | 19.44° C | 69% | 1061.6 hPa | - | - | - | - |
| 1777582272 | 19.44° C | 69% | 1329.9 hPa | - | - | - | - |
| 1777581673 | 19.44° C | 69% | 1061.7 hPa | - | - | - | - |
| 1777581074 | 19.44° C | 68% | 1061.8 hPa | - | - | - | - |
| 1777580475 | 19.44° C | 67% | 1061.8 hPa | - | - | - | - |
| 1777579877 | 19.44° C | 65% | 1061.8 hPa | - | - | - | - |
| 1777579278 | 20° C | 62% | 1061.7 hPa | - | - | - | - |
| 1777578680 | 20° C | 59% | 1061.6 hPa | - | - | - | - |
| 1777577894 | 20.56° C | 60% | 1061.4 hPa | - | - | - | - |
| 1777577295 | 20.56° C | 59% | 1061.3 hPa | - | - | - | - |
| 1777576696 | 21.11° C | 59% | 1061.3 hPa | - | - | - | - |
| 1777575660 | 21.11° C | 58% | 1061 hPa | - | - | - | - |
| 1777575060 | 21.11° C | 58% | 1061 hPa | - | - | - | - |
| 1777573653 | 21.11° C | 57% | 1060.6 hPa | - | - | - | - |
| 1777573053 | 21.11° C | 60% | 1060.6 hPa | - | - | - | - |
| 1777571765 | 21.67° C | 59% | 1060.5 hPa | - | - | - | - |
| 1777571166 | 21.67° C | 58% | 1060.4 hPa | - | - | - | - |
| 1777570566 | 21.67° C | 59% | 1060.3 hPa | - | - | - | - |
| 1777569968 | 21.67° C | 59% | 1060.3 hPa | - | - | - | - |
* Rain since midnight (hover to see other rain measurements)
** Current wind speed in m/s (hover to see current wind gust speed)